Hourly Data Report for October 27, 2016

All times are specified in Local Standard Time (LST). Add 1 hour to adjust for Daylight Saving Time where and when it is observed.

KAMLOOPS A
BRITISH COLUMBIA

50°42'09.000" N
120°26'55.000" W
345.30 m
1163781
71887
YKA

Download Data

Hourly Data (October 2016)
Hourly Data Report for October 27, 2016
Temp Definition
°C
Dew Point Temp Definition
°C
Rel Hum Definition
%
Wind Dir Definition
10's deg

Wind Spd Definition
km/h
Visibility Definition
km
Stn Press Definition
kPa
Hmdx Definition


Wind Chill Definition


Weather Definition


TIME
00:00 Legend Double Dagger 8.9 6.4 84 6 12 64.4 96.83     LegendNANA
01:00 Legend Double Dagger 9.3 6.6 83 7 22 64.4 96.72     Cloudy
02:00 Legend Double Dagger 10.1 6.8 80 12 25 64.4 96.68     LegendNANA
03:00 Legend Double Dagger 9.5 6.4 81 9 28 64.4 96.60     LegendNANA
04:00 Legend Double Dagger 9.5 6.4 81 8 22 64.4 96.62     Cloudy
05:00 Legend Double Dagger 9.2 6.5 83 10 28 64.4 96.65     LegendNANA
06:00 Legend Double Dagger 9.0 6.5 84 9 27 64.4 96.70     LegendNANA
07:00 Legend Double Dagger 8.5 6.6 88 10 22 64.4 96.70     Mostly Cloudy
08:00 Legend Double Dagger 8.6 6.7 88 7 17 64.4 96.77     LegendNANA
09:00 Legend Double Dagger 9.5 7.1 85 10 24 64.4 96.77     LegendNANA
10:00 Legend Double Dagger 10.3 6.8 79 10 31 64.4 96.77     Mostly Cloudy
11:00 Legend Double Dagger 11.7 7.5 75 10 25 64.4 96.71     LegendNANA
12:00 Legend Double Dagger 12.5 7.4 71 10 28 64.4 96.70     LegendNANA
13:00 Legend Double Dagger 12.2 7.5 73 10 23 64.4 96.66     Cloudy
14:00 Legend Double Dagger 11.9 7.3 73 11 29 64.4 96.68     LegendNANA
15:00 Legend Double Dagger 11.2 7.9 80 8 20 64.4 96.73     Rain
16:00 Legend Double Dagger 10.9 7.6 80 12 18 48.3 96.77     Rain
17:00 Legend Double Dagger 10.3 8.3 87 11 14 32.2 96.79     Rain
18:00 Legend Double Dagger 9.5 8.1 91 9 12 32.2 96.82     Rain
19:00 Legend Double Dagger 9.3 8.4 94 6 9 48.3 96.85     Rain
20:00 Legend Double Dagger 8.6 7.9 95 6 7 48.3 96.89     LegendNANA
21:00 Legend Double Dagger 8.0 7.4 96 30 3 48.3 96.94     LegendNANA
22:00 Legend Double Dagger 7.8 7.4 97 36 2 24.1 96.97     Cloudy
23:00 Legend Double Dagger 8.1 7.7 97 36 3 24.1 97.04     LegendNANA

Notes on Data Quality.

Legend

  • E = Estimated
  • M = Missing
  • NA = Not Available
  • ‡ = Partner data that is not subject to review by the National Climate Archives
Date modified: